Temperature
16 16 16 16 16 16 16 16 16 16 16 16 16 16 16 16 16 16 16 15 15 15 16 15 15 15 15 15 15 15 15 15 15 14 14 15 15 15 14 14 14 14 14
17 16 16 16 16 16 16 16 16 16 16 16 16 16 16 16 16 15 15 15 15 15 15 15 15 15 15 15 15 15 15 14 14 14 14 14 14 14 14 14 14 14 14
16 16 16 16 16 16 16 16 16 16 16 16 16 16 15 16 16 15 15 15 15 15 15 15 15 15 15 14 14 14 14 14 14 14 14 14 14 14 14 14 14 14 14
16 16 16 16 16 16 16 16 16 16 16 16 15 15 15 15 15 15 15 15 15 15 15 15 15 15 14 14 14 14 14 14 14 14 14 14 14 14 14 14 14 14 14
16 15 15 15 15 15 15 15 16 15 15 15 15 15 15 15 15 15 15 15 15 15 15 15 14 14 14 14 14 14 14 14 14 14 14 14 13 13 13 13 13 13 13
15 15 15 15 15 15 15 15 15 15 15 15 15 15 15 15 15 15 15 15 15 15 15 14 14 14 14 14 14 14 14 13 13 13 13 13 13 13 13 13 13 13 13
15 15 15 15 15 15 15 15 15 15 15 15 15 15 15 15 15 15 15 14 14 14 14 14 14 14 14 14 13 13 13 13 13 13 13 13 13 13 13 13 13 12 12
15 15 15 15 15 15 15 15 15 15 15 15 15 15 15 14 14 14 14 14 14 14 14 14 14 14 13 13 13 13 13 13 13 13 13 13 13 13 12 12 12 12 12
14 14 14 14 14 14 14 14 14 14 14 14 14 14 14 14 14 14 14 14 14 14 14 13 13 13 13 13 13 13 13 13 13 13 13 13 12 12 12 12 12 12 12
14 14 14 14 14 14 14 14 14 14 14 14 14 14 14 14 14 14 14 13 13 14 13 13 13 13 13 13 13 13 13 13 13 12 12 12 12 12 12 12 12 11 11
13 13 13 13 13 13 13 13 13 14 14 14 14 14 14 13 13 13 13 13 13 13 13 13 13 13 13 12 12 12 12 12 12 12 12 12 12 12 12 11 11 11 11
13 13 13 13 13 13 13 13 13 13 13 13 13 13 13 13 13 13 13 13 13 13 13 13 12 12 12 12 12 12 12 12 12 12 12 12 12 11 11 11 11 11 11
12 12 12 13 13 13 13 13 13 13 13 13 13 13 13 13 13 12 12 13 13 12 12 12 12 12 12 12 12 12 12 12 12 12 12 11 11 11 11 11 11 11 10
12 12 12 12 12 12 12 13 12 13 13 13 13 13 13 13 13 12 12 12 12 12 12 12 12 12 12 11 11 11 11 11 11 11 11 11 11 11 11 11 11 10 10
11 11 11 12 12 12 12 12 12 12 12 13 12 12 13 12 12 12 12 12 12 12 12 12 12 11 11 11 11 11 11 11 11 11 11 11 11 11 10 10 10 10 10
11 11 11 11 11 11 12 12 12 12 12 12 12 12 12 12 12 12 12 12 12 11 11 11 11 11 11 11 11 11 11 10 11 11 11 11 10 10 10 10 10 10 10
10 10 10 10 11 11 11 11 12 12 12 12 12 11 11 12 12 12 12 11 11 11 11 11 11 11 11 10 10 10 10 10 10 10 10 10 10 10 10 10 10 10 10
9 10 10 10 10 10 11 11 11 11 11 11 11 11 11 11 11 11 11 11 11 11 11 11 11 10 10 10 10 10 10 10 10 10 10 10 10 10 10 10 10 10 10
9 9 9 9 10 10 10 10 10 11 11 11 11 11 11 11 11 11 11 11 10 10 10 10 10 10 10 10 10 10 9 9 9 10 10 10 10 10 10 10 10 9 9
8 8 9 9 9 9 9 10 10 10 10 10 10 10 10 10 10 10 10 10 10 10 10 10 10 10 10 9 9 9 9 9 9 9 9 9 9 9 9 9 9 9 9
7 8 8 8 9 9 9 9 9 9 9 10 10 10 10 10 10 10 10 10 10 10 10 10 9 9 9 9 9 8 8 8 8 9 9 9 9 9 9 9 9 9 9
6 7 7 7 8 8 8 8 9 9 9 9 9 9 9 10 10 9 9 10 9 9 9 9 9 9 9 9 9 8 8 8 8 8 8 8 9 9 8 8 8 9 9
6 6 6 7 7 7 8 8 8 8 8 8 9 9 9 9 9 9 9 9 9 9 9 9 9 9 9 8 8 8 8 8 8 8 8 8 8 8 8 8 8 8 8
5 5 6 6 6 7 7 7 7 8 8 8 8 8 8 8 8 8 8 8 8 8 8 8 8 8 8 8 8 8 8 8 8 7 8 8 8 8 8 8 8 8 8
4 5 5 5 5 6 6 6 7 7 7 7 7 7 8 8 8 8 8 8 8 8 8 8 8 8 8 8 8 8 8 8 8 8 7 7 8 8 8 8 8 8 8
4 4 4 5 5 5 5 6 6 6 6 6 7 7 7 7 7 7 7 7 7 7 7 8 8 7 8 8 8 8 8 8 8 8 7 7 7 7 7 7 7 7 7
Wind_Speed
6 9 15 14 15 15 15 15 15 15 15 15 15 16 17 17 16 16 16 16 16 16 17 17 17 18 19 19 19 19 19 20 20 20 20 20 20 20 20 19 18 18 20
9 13 16 15 15 15 15 15 15 15 15 15 15 16 16 16 15 15 15 15 16 16 16 16 17 17 18 19 19 19 19 19 20 19 19 19 19 19 19 19 18 17 20
11 13 16 16 15 15 15 15 15 15 15 15 15 15 15 15 15 15 15 15 15 16 16 16 16 17 17 18 18 18 18 19 18 18 17 16 17 19 19 19 19 19 19
12 13 15 16 16 15 15 15 15 15 15 15 15 15 15 15 15 14 15 15 15 16 16 16 16 16 16 17 17 17 17 17 17 17 15 14 15 18 18 18 18 19 19
11 12 14 16 16 15 15 15 15 15 14 15 15 15 14 14 14 14 15 15 15 16 15 15 15 15 16 16 16 17 17 17 17 15 14 14 14 16 17 17 17 18 18
9 11 14 16 16 15 15 15 15 15 15 15 14 14 14 14 14 14 15 15 15 15 15 14 14 15 15 15 16 16 16 17 15 14 13 13 13 16 16 16 17 17 17
9 10 14 15 15 15 15 15 15 15 15 15 14 14 14 14 14 14 15 15 15 15 15 14 14 14 14 15 16 16 16 16 14 13 12 12 13 15 15 16 16 16 16
9 9 11 14 14 15 15 15 15 15 14 14 14 14 14 14 13 13 14 14 15 14 14 14 13 13 14 15 15 16 15 14 13 12 11 11 13 14 15 15 15 15 15
8 8 8 10 12 13 14 14 14 14 14 14 14 14 14 14 13 13 13 14 14 14 14 14 13 13 13 14 14 15 15 15 12 10 10 10 12 13 14 14 14 14 15
6 6 6 7 9 9 11 13 14 14 14 14 15 15 14 13 13 13 13 13 13 14 14 13 13 12 12 13 14 15 15 13 12 10 9 10 11 12 13 13 13 14 14
5 4 5 6 7 8 9 12 13 14 14 15 14 14 13 11 11 11 12 13 13 13 13 12 12 12 12 13 14 14 13 11 11 9 9 10 11 12 12 13 13 13 13
5 3 3 4 5 7 7 9 10 10 12 12 12 12 11 10 10 10 12 12 12 12 11 11 11 11 11 11 11 12 11 11 9 8 9 10 11 11 12 12 12 12 13
5 4 3 3 5 6 5 6 6 7 9 10 11 11 11 10 9 9 9 9 9 10 9 9 9 9 9 9 9 10 10 10 9 8 9 10 10 10 11 12 11 11 12
3 3 3 3 4 4 5 5 6 6 7 7 9 10 9 7 7 7 7 7 7 8 8 8 8 8 9 9 9 9 9 8 8 8 9 10 9 9 9 10 10 11 11
3 2 2 2 3 4 5 5 5 5 6 7 8 9 9 7 5 6 6 6 6 8 8 7 7 8 8 8 8 8 8 8 8 9 8 9 8 8 8 9 9 10 10
3 2 2 2 2 3 4 4 4 5 6 7 7 8 9 8 7 6 5 5 6 7 8 8 7 7 6 7 6 7 7 7 8 8 8 8 7 7 7 7 8 8 9
2 2 2 2 3 3 3 4 5 5 6 5 6 8 9 9 8 7 5 4 6 8 8 8 7 7 5 5 5 6 7 7 8 8 8 7 7 6 6 6 7 7 7
2 2 2 3 3 3 2 3 4 5 6 5 6 7 8 9 9 7 5 4 6 7 7 5 4 4 4 4 3 3 5 6 6 7 7 7 6 6 5 5 6 7 7
2 3 3 3 3 3 3 3 4 5 5 5 6 6 7 8 9 7 5 4 6 6 5 4 3 4 5 4 4 3 3 4 4 6 6 5 6 6 5 6 7 7 6
3 3 3 3 4 4 3 3 3 4 3 4 5 5 6 6 7 7 5 5 6 4 3 4 4 4 4 5 5 3 2 2 3 4 4 4 5 6 6 5 6 5 5
4 3 3 3 3 3 2 2 2 2 2 2 3 5 6 6 7 6 4 4 5 3 3 4 4 5 3 4 4 3 2 2 2 1 2 3 3 4 5 5 5 4 4
3 3 3 3 2 2 1 1 1 1 1 1 2 4 5 5 5 5 4 4 4 3 4 4 4 3 2 2 3 3 1 1 2 1 0 1 2 3 4 4 4 4 3
3 2 2 2 2 3 3 2 3 2 2 2 2 2 3 4 4 4 4 4 4 4 4 4 4 4 3 1 2 3 3 3 1 1 1 1 1 2 2 4 5 5 4
2 2 2 2 2 3 3 3 4 3 2 0 1 1 2 3 3 3 4 4 3 3 3 3 2 2 4 3 1 1 1 3 3 1 1 1 1 2 2 3 4 5 5
2 2 3 2 2 2 3 3 3 2 1 1 2 2 2 2 2 3 3 3 3 2 2 3 2 2 2 3 3 2 2 1 1 2 2 2 1 2 2 3 4 5 5
3 3 3 3 3 3 3 3 3 3 2 2 2 1 1 1 1 2 2 2 2 2 2 2 2 2 2 2 2 2 3 3 3 3 2 2 2 2 2 2 3 5 6
Wind_Direction
164 162 154 147 140 135 130 127 123 120 118 117 117 114 111 109 108 108 107 105 103 101 98 97 96 96 94 93 92 90 88 85 83 81 82 81 81 80 79 76 73 71 73
157 160 153 148 143 137 133 129 127 124 121 120 120 118 115 112 111 111 110 108 106 104 102 99 97 98 97 95 94 92 91 89 86 83 81 80 80 81 80 78 76 76 75
145 154 151 147 142 139 135 130 128 127 124 122 122 122 119 115 114 113 112 110 109 106 103 102 100 99 98 97 96 95 93 91 87 84 81 79 82 83 82 80 78 77 76
143 148 149 146 142 139 136 134 130 128 126 124 124 123 122 119 117 116 115 114 111 108 106 104 101 100 99 98 97 96 95 92 89 85 78 78 83 84 83 82 80 78 77
138 143 148 145 143 140 138 136 134 132 129 126 124 122 123 123 121 119 117 115 113 110 108 105 103 102 101 98 97 96 93 94 91 85 79 79 82 85 84 82 81 79 78
132 139 145 145 143 141 140 139 137 135 132 128 125 123 124 125 125 121 118 118 116 114 111 109 106 105 102 99 98 97 94 95 92 83 81 81 84 87 86 85 83 82 80
133 134 142 145 145 143 142 142 139 137 133 131 128 127 127 124 123 123 121 121 121 119 116 113 110 107 103 101 100 97 96 99 94 85 83 83 88 91 89 88 87 84 82
129 128 139 142 144 146 145 144 140 138 135 133 131 128 127 126 124 125 126 126 126 125 122 119 114 108 105 103 102 99 98 102 98 89 86 88 94 95 93 91 89 87 85
113 114 119 132 140 144 144 142 141 138 135 133 131 128 125 125 126 125 127 130 131 129 126 122 117 112 110 107 105 101 99 100 97 93 94 93 98 98 96 94 92 90 86
100 105 107 117 123 128 138 141 138 137 135 133 130 126 123 124 127 128 126 128 132 132 130 126 120 115 113 110 106 100 99 97 92 92 93 98 101 100 98 97 97 94 90
99 95 102 108 115 119 128 136 135 136 136 133 130 128 125 122 123 128 129 129 131 133 133 130 123 117 114 111 105 101 98 97 93 91 95 103 104 103 101 99 98 96 93
128 118 106 116 117 120 125 127 131 136 136 133 133 129 128 126 126 129 132 132 131 133 135 133 125 120 116 110 104 101 100 99 95 94 99 107 107 106 104 102 99 98 97
150 136 122 121 123 120 119 124 125 129 133 132 134 132 131 126 125 126 127 129 130 128 128 128 117 114 114 112 107 106 105 101 98 98 102 104 109 111 109 107 103 100 98
123 128 121 112 122 123 126 128 124 125 129 131 136 135 132 128 126 130 130 133 130 128 124 124 117 115 114 115 114 110 105 105 102 100 104 105 109 114 115 112 109 105 104
85 85 94 105 122 128 123 127 125 126 131 132 135 140 138 134 135 136 137 138 137 136 133 128 122 119 118 116 118 117 110 109 108 105 104 107 109 113 118 120 117 112 109
77 84 81 89 102 125 125 128 131 129 130 130 132 137 140 141 141 141 141 141 143 145 142 135 130 125 121 119 116 119 116 116 118 115 110 110 110 111 113 121 121 116 113
82 81 92 89 67 96 121 129 131 132 130 128 132 136 135 137 140 139 138 142 148 146 139 130 123 120 116 115 109 114 116 119 124 120 117 114 113 113 117 119 121 122 118
72 76 82 84 71 66 82 113 124 129 127 127 131 133 134 137 140 135 131 137 143 139 136 128 124 122 120 117 113 106 110 116 125 126 123 119 118 118 121 126 125 125 124
68 80 73 75 76 67 63 89 105 116 116 125 126 125 132 136 139 136 134 134 136 126 128 132 123 124 125 122 116 98 93 105 121 126 121 125 128 128 127 129 127 125 129
69 75 77 69 66 64 64 69 83 84 87 101 117 124 129 134 133 130 129 131 131 119 115 121 123 114 122 126 114 89 69 78 104 116 129 133 136 134 135 133 135 137 139
56 70 74 69 61 71 82 100 111 103 93 86 92 113 121 126 130 127 125 130 131 132 136 131 126 123 120 122 108 86 39 39 52 94 123 130 144 149 145 145 147 146 156
52 66 78 79 68 67 62 101 149 141 120 106 91 92 110 114 124 133 132 134 131 129 132 129 127 127 137 139 131 126 121 9 349 349 92 145 153 153 156 164 164 170 173
51 54 78 71 69 60 55 80 81 78 69 63 73 78 86 111 115 128 137 136 135 139 154 157 147 144 159 168 143 148 157 194 225 319 302 205 179 165 184 183 182 188 196
41 42 58 65 65 70 82 100 114 122 124 102 80 95 93 110 114 119 131 134 137 137 152 167 156 147 157 170 168 157 152 148 159 178 307 278 228 211 210 204 194 198 204
43 47 45 48 64 61 79 98 106 100 92 81 77 85 84 82 102 110 127 129 133 140 143 147 152 155 166 175 175 165 135 115 135 157 202 251 267 241 220 214 208 213 216
46 47 50 47 48 57 72 89 92 94 84 85 73 84 66 60 77 92 110 130 142 139 149 151 150 165 182 178 182 177 168 165 175 165 185 212 233 249 233 221 220 221 223
Height
1526 1528 1531 1533 1535 1536 1537 1539 1540 1542 1543 1544 1545 1547 1548 1549 1549 1550 1551 1552 1552 1553 1553 1554 1554 1554 1554 1555 1555 1555 1555 1556 1556 1556 1556 1556 1556 1556 1556 1556 1556 1555 1555
1524 1528 1530 1532 1534 1536 1538 1539 1541 1542 1544 1545 1546 1548 1549 1550 1551 1551 1552 1553 1554 1554 1555 1555 1556 1556 1556 1557 1557 1557 1557 1558 1558 1558 1558 1558 1558 1558 1558 1558 1558 1557 1557
1525 1527 1530 1532 1534 1536 1538 1540 1541 1543 1544 1546 1547 1548 1550 1550 1551 1552 1553 1554 1555 1556 1556 1557 1557 1558 1558 1558 1559 1559 1559 1559 1560 1560 1560 1560 1560 1560 1560 1560 1560 1559 1559
1525 1527 1530 1532 1534 1536 1538 1540 1542 1543 1545 1546 1547 1549 1550 1551 1552 1553 1554 1555 1556 1557 1557 1558 1559 1559 1560 1560 1560 1561 1561 1561 1562 1562 1562 1562 1562 1562 1562 1562 1561 1561 1560
1525 1528 1530 1532 1534 1536 1538 1540 1542 1543 1545 1547 1548 1549 1551 1552 1553 1554 1555 1556 1557 1558 1558 1559 1560 1560 1561 1562 1562 1562 1563 1563 1564 1564 1564 1564 1564 1564 1564 1563 1563 1562 1562
1525 1528 1530 1532 1534 1536 1538 1540 1542 1544 1545 1547 1548 1550 1551 1552 1553 1555 1556 1557 1558 1559 1560 1560 1561 1562 1562 1563 1563 1564 1564 1565 1565 1565 1565 1566 1565 1566 1565 1565 1564 1564 1564
1525 1528 1530 1532 1534 1536 1538 1540 1541 1543 1545 1547 1548 1550 1551 1552 1554 1555 1556 1557 1558 1559 1560 1561 1562 1563 1563 1564 1565 1565 1566 1566 1567 1567 1567 1567 1567 1567 1567 1566 1566 1565 1565
1524 1527 1530 1532 1534 1536 1538 1539 1541 1543 1545 1546 1548 1549 1551 1552 1554 1555 1556 1557 1559 1560 1561 1562 1563 1564 1564 1565 1566 1566 1567 1568 1568 1568 1568 1568 1568 1568 1568 1567 1567 1567 1567
1524 1527 1529 1531 1534 1535 1537 1539 1541 1542 1544 1546 1547 1549 1551 1552 1554 1555 1556 1558 1559 1560 1561 1562 1564 1564 1565 1566 1567 1567 1568 1569 1569 1569 1569 1569 1570 1569 1569 1569 1569 1569 1568
1525 1526 1528 1531 1532 1534 1536 1538 1540 1542 1544 1545 1547 1549 1550 1552 1553 1555 1556 1557 1559 1560 1561 1563 1564 1565 1566 1567 1567 1568 1569 1569 1570 1570 1570 1570 1571 1571 1570 1570 1570 1570 1570
1524 1526 1528 1530 1532 1533 1535 1537 1539 1541 1543 1545 1546 1548 1550 1551 1553 1554 1556 1557 1559 1560 1561 1562 1564 1565 1566 1567 1568 1569 1569 1570 1570 1571 1571 1571 1572 1572 1571 1572 1571 1571 1571
1522 1524 1527 1528 1530 1532 1534 1536 1538 1540 1542 1544 1545 1547 1549 1550 1552 1554 1555 1557 1558 1560 1561 1562 1564 1565 1566 1567 1568 1569 1569 1570 1571 1571 1571 1572 1572 1572 1572 1572 1572 1572 1572
1521 1523 1525 1527 1529 1531 1533 1535 1537 1539 1540 1542 1544 1546 1548 1549 1551 1553 1554 1556 1558 1559 1561 1562 1563 1564 1566 1567 1568 1569 1569 1570 1571 1571 1572 1572 1573 1573 1573 1573 1573 1573 1573
1520 1522 1524 1526 1528 1530 1532 1534 1535 1537 1539 1541 1543 1545 1546 1548 1550 1551 1553 1555 1557 1558 1560 1561 1563 1564 1565 1566 1567 1568 1569 1570 1571 1571 1572 1572 1573 1573 1574 1574 1574 1574 1574
1519 1520 1522 1525 1526 1529 1531 1532 1534 1536 1538 1539 1541 1543 1545 1547 1548 1550 1552 1554 1556 1557 1559 1560 1562 1563 1565 1566 1567 1568 1569 1569 1570 1571 1571 1572 1573 1573 1574 1574 1574 1575 1575
1517 1519 1521 1523 1525 1527 1529 1531 1533 1535 1536 1538 1540 1542 1544 1546 1547 1549 1551 1552 1554 1556 1558 1560 1561 1562 1564 1565 1566 1567 1568 1569 1569 1570 1571 1572 1573 1573 1574 1574 1574 1575 1575
1516 1518 1520 1522 1523 1525 1527 1529 1531 1533 1535 1536 1538 1540 1542 1544 1546 1547 1549 1551 1553 1555 1557 1558 1560 1561 1563 1564 1565 1566 1567 1568 1569 1570 1571 1571 1572 1573 1573 1574 1574 1574 1575
1515 1516 1518 1520 1522 1523 1526 1528 1530 1532 1534 1535 1537 1539 1541 1543 1544 1546 1548 1549 1551 1553 1555 1556 1558 1559 1561 1562 1563 1565 1566 1567 1568 1568 1570 1570 1571 1572 1573 1573 1574 1574 1574
1514 1515 1517 1518 1520 1522 1524 1526 1528 1530 1532 1534 1535 1537 1539 1541 1543 1544 1546 1548 1550 1551 1553 1554 1556 1557 1559 1560 1562 1563 1564 1566 1567 1567 1568 1569 1570 1571 1572 1572 1573 1573 1574
1513 1514 1516 1517 1519 1520 1522 1524 1526 1528 1530 1532 1533 1535 1537 1539 1541 1542 1544 1546 1548 1549 1551 1552 1554 1556 1557 1559 1560 1562 1563 1564 1565 1566 1567 1568 1569 1569 1570 1571 1572 1572 1573
1511 1512 1514 1515 1517 1518 1520 1521 1523 1525 1527 1529 1532 1533 1535 1537 1539 1540 1542 1544 1545 1547 1549 1550 1552 1553 1555 1557 1559 1560 1562 1563 1564 1564 1565 1566 1567 1568 1569 1569 1570 1571 1571
1510 1511 1513 1514 1515 1517 1518 1520 1522 1523 1525 1528 1530 1532 1533 1534 1536 1538 1540 1542 1543 1545 1547 1548 1550 1551 1553 1555 1556 1558 1559 1562 1561 1562 1563 1564 1565 1566 1567 1568 1568 1569 1569
1508 1510 1511 1512 1514 1515 1517 1519 1521 1522 1524 1525 1527 1529 1531 1533 1534 1536 1538 1540 1541 1543 1544 1546 1548 1549 1550 1552 1554 1555 1556 1557 1559 1560 1560 1561 1563 1564 1564 1565 1566 1567 1567
1508 1509 1510 1511 1512 1513 1515 1516 1518 1519 1520 1522 1524 1527 1529 1531 1532 1534 1536 1537 1539 1541 1542 1544 1545 1547 1549 1550 1552 1553 1554 1555 1556 1556 1558 1559 1560 1561 1562 1563 1564 1565 1565
1507 1508 1509 1511 1511 1512 1513 1514 1516 1518 1519 1521 1523 1525 1526 1528 1530 1531 1533 1535 1536 1538 1539 1541 1543 1544 1546 1547 1549 1550 1552 1553 1554 1554 1555 1556 1557 1558 1559 1560 1561 1562 1562
1506 1507 1509 1510 1510 1511 1512 1513 1514 1516 1517 1519 1520 1522 1524 1525 1527 1528 1530 1532 1533 1535 1536 1538 1540 1541 1543 1545 1546 1548 1549 1550 1551 1552 1552 1553 1554 1555 1556 1557 1558 1559 1559